Retour au catalogue

STARLINK-33811

ActifCommunicationsVLEO
NORAD 63504·PAYLOAD·🇺🇸 United States

Lancé Apr 7, 2025 depuis Vandenberg Space Force Base

Loading…

Prochains Passages (prochaines 24 heures)

TLE

FraisSource: CelesTrak SupGP

Époque: Sep 14, 2026, 21:17 UTC

1 63504C 25071M   26257.88729167 -.00014593  00000+0 -43124-3 0  2570
2 63504  53.1575 339.6281 0001279  92.3598  64.7438 15.34392424    13

Suivez STARLINK-33811 en temps réel avec AllMySat

Download on the App Store